Wind_Speed
27 27 28 29 30 31 32 33 34 35 36 37 37 37 38 39 38 39 40 41 42 42 42 43 43 43 43 43 43 43 44 44 45 45 46 46 46 46 45 44 44 44 44 43
28 28 29 30 31 32 34 35 36 36 36 37 36 36 37 38 39 39 39 40 41 42 43 44 44 44 44 44 44 44 44 44 46 46 47 47 47 47 47 47 47 46 46 46
29 29 29 30 31 33 34 36 36 37 36 36 37 35 34 35 37 38 39 40 41 42 43 44 45 45 45 45 45 45 45 46 46 47 48 48 49 48 48 48 48 48 48 47
30 30 31 32 32 33 35 35 36 36 36 35 36 36 33 34 35 36 38 40 41 42 43 43 44 45 45 46 46 46 47 47 47 47 49 50 50 50 49 49 49 49 49 49
30 31 31 32 33 33 34 34 35 36 36 37 35 38 35 34 35 36 37 39 40 41 42 43 43 44 45 45 46 47 48 49 48 49 50 50 51 51 51 51 51 51 52 51
32 32 32 33 33 34 35 35 35 36 37 37 36 38 37 35 35 36 37 38 39 40 41 41 42 44 44 45 46 47 49 50 50 51 51 51 52 52 52 52 53 53 54 53
33 32 33 33 34 34 35 35 36 36 37 37 36 37 37 36 36 37 38 39 40 40 40 41 42 43 44 45 46 47 48 49 50 51 52 53 53 54 53 53 53 54 55 55
35 34 34 34 34 35 34 35 35 37 37 37 37 38 37 37 36 36 38 39 39 40 40 41 42 43 44 45 46 47 48 49 49 51 52 53 54 55 55 55 54 54 55 57
36 36 35 35 35 35 35 35 35 37 38 38 38 38 38 37 37 37 38 39 40 40 40 41 42 42 43 44 45 46 47 48 49 50 51 52 54 55 55 56 55 54 55 56
36 37 36 36 36 36 36 36 36 37 39 40 39 38 38 38 38 38 38 39 39 40 41 41 42 42 42 43 44 45 45 46 48 49 50 51 52 54 55 56 56 55 55 55
36 37 37 37 36 36 36 36 37 38 39 40 41 40 39 39 40 40 40 39 39 38 39 40 40 41 41 42 43 44 45 45 46 48 49 50 51 53 55 56 56 56 57 57
36 37 38 38 37 37 37 37 37 38 39 40 42 43 40 40 40 41 41 41 40 40 39 39 40 41 41 41 42 43 43 44 45 46 47 48 48 51 53 55 56 57 57 57
37 38 39 39 39 38 38 38 38 39 40 41 43 43 42 41 41 41 41 41 40 40 39 40 40 40 41 41 41 41 42 43 44 45 46 47 48 49 50 53 54 55 56 56
38 39 39 40 40 40 39 39 39 40 42 43 43 43 41 42 42 42 42 42 41 41 41 40 40 40 40 40 40 40 41 42 42 44 45 46 47 48 49 50 51 53 54 54
39 40 40 41 41 41 41 40 40 41 42 43 43 43 41 41 42 42 42 43 42 41 41 41 41 40 40 40 40 41 41 42 42 42 42 44 45 47 49 50 51 52 53 54
41 42 42 42 42 42 42 41 41 42 42 43 44 43 41 42 42 42 42 42 41 40 40 40 40 40 40 41 40 40 41 41 41 42 42 44 45 46 48 50 51 52 52 54
42 43 44 43 43 44 43 41 41 42 42 44 45 43 42 42 42 42 41 40 40 40 40 40 40 40 40 41 41 40 40 41 41 41 43 44 45 46 48 49 50 51 51 52
43 44 45 45 45 45 44 42 42 42 42 42 42 42 42 42 41 40 40 40 39 39 40 40 40 40 40 40 40 40 40 41 41 41 42 43 44 45 46 47 48 49 49 51
44 43 44 44 45 45 43 42 42 42 41 40 40 40 40 40 39 39 39 39 39 39 39 39 39 40 40 39 40 40 40 41 41 41 42 42 42 43 44 46 47 47 48 49
42 42 43 44 45 45 43 41 41 41 41 39 39 39 39 39 39 38 39 39 39 39 38 38 38 38 38 39 39 39 40 40 40 40 40 41 41 42 42 43 44 45 46 48
42 42 42 43 45 45 42 41 41 41 41 40 39 39 38 39 39 38 38 38 39 38 38 38 38 38 37 37 37 37 38 38 39 39 39 39 40 41 41 42 42 43 44 45
43 43 43 43 43 43 42 41 41 41 41 40 39 39 40 39 39 39 38 39 39 39 39 38 38 37 37 36 36 36 36 36 36 37 38 38 38 40 40 41 42 43 44 44
43 43 43 42 42 42 41 41 41 41 40 40 39 39 40 39 38 38 38 38 38 38 38 38 37 37 36 36 35 35 35 35 34 35 36 36 37 38 40 41 41 42 43 43
42 42 42 42 42 41 42 42 41 41 41 40 40 39 39 38 37 38 38 38 38 37 37 37 37 37 36 36 36 35 35 35 35 34 34 35 35 36 38 38 39 40 41 42
41 41 41 42 41 42 41 41 40 40 40 40 39 39 38 38 38 38 38 38 38 37 37 37 36 36 36 36 36 36 35 35 35 35 35 34 35 35 36 37 37 39 40 41
40 40 41 41 40 40 39 39 39 39 38 38 39 39 39 39 39 39 39 39 38 38 36 36 35 35 35 35 35 35 35 35 35 35 35 35 35 35 35 36 36 37 38 38
Wind_Direction
296 294 293 292 292 291 290 290 289 287 285 283 280 277 275 273 271 270 270 268 267 266 265 265 265 265 264 262 260 259 257 256 254 251 250 250 250 249 250 251 250 250 250 250
297 296 296 295 294 293 292 291 290 288 286 284 282 279 276 274 272 271 270 270 269 267 267 266 265 264 263 261 260 259 258 257 255 252 251 250 250 250 249 250 249 248 249 249
299 299 298 298 297 295 294 293 292 290 288 286 284 280 278 277 276 273 272 270 269 268 268 267 266 265 264 262 261 260 258 257 256 254 252 251 250 250 250 249 248 248 248 248
301 300 300 299 298 297 296 295 293 292 290 288 286 284 281 280 279 277 274 273 271 270 268 267 266 265 264 262 261 261 259 258 257 255 254 252 251 250 250 249 249 248 246 247
303 302 301 300 300 298 296 295 294 293 291 288 286 285 284 282 280 279 277 276 275 273 271 268 266 264 264 263 261 261 259 258 257 256 255 252 251 250 250 250 250 249 248 248
304 303 302 301 300 298 296 295 295 294 292 290 289 286 285 286 285 281 279 278 277 276 274 271 268 266 264 264 262 261 260 259 258 256 255 254 251 250 250 250 250 250 249 248
303 302 301 300 300 299 297 296 296 296 295 293 292 288 288 288 288 285 282 279 278 276 275 273 272 269 267 266 264 262 261 259 258 256 256 254 252 250 249 250 250 250 250 249
302 302 301 300 300 301 299 297 296 296 297 296 293 290 290 289 289 288 285 282 280 278 276 275 274 272 270 268 266 263 261 260 258 257 257 255 252 251 250 250 250 251 250 249
301 301 301 300 300 300 299 296 295 295 296 296 295 294 292 291 291 290 289 286 283 281 279 276 275 274 272 270 267 265 263 261 259 258 257 256 254 252 251 250 250 250 250 250
300 300 300 300 300 300 298 297 295 295 296 296 296 296 295 295 294 292 291 290 287 283 281 280 277 275 274 272 269 267 265 264 262 260 258 258 256 254 252 251 250 250 251 251
299 299 300 299 299 299 298 297 295 293 293 295 296 296 298 297 295 294 292 290 289 286 283 280 279 276 274 273 271 269 267 265 263 261 259 258 257 255 253 252 251 251 252 252
298 297 297 298 298 297 297 297 295 293 293 293 294 295 297 296 293 292 290 289 288 287 284 282 280 278 276 275 273 271 269 266 264 262 259 258 258 256 254 252 252 251 253 253
297 296 296 297 297 297 296 296 294 293 292 292 293 296 298 297 293 291 290 289 288 287 285 283 280 278 277 276 274 272 269 267 265 263 260 259 258 257 255 254 254 252 253 253
296 295 295 296 297 297 296 295 293 292 292 292 294 296 296 296 294 291 290 290 289 286 284 283 282 279 277 276 274 272 271 269 267 264 262 261 259 257 256 255 254 254 253 253
294 295 296 295 295 295 294 293 292 291 292 292 294 294 296 295 293 291 290 289 289 286 284 282 281 279 278 276 275 272 271 270 267 265 264 262 260 258 256 255 254 254 254 253
293 295 295 294 294 293 292 292 292 292 293 293 294 294 296 294 293 292 291 289 288 286 284 282 280 279 278 277 275 274 271 270 268 266 264 263 261 259 257 256 255 254 254 253
292 293 293 293 293 292 292 295 294 293 293 293 294 295 294 293 292 292 291 289 287 285 284 283 281 280 279 277 276 274 272 270 269 268 265 264 262 260 258 256 256 256 255 254
293 294 294 295 294 292 296 296 295 294 293 293 294 294 294 294 292 291 291 290 288 287 285 284 283 281 279 277 276 275 273 271 270 269 267 265 263 262 259 257 257 257 256 255
292 293 294 295 295 296 296 297 297 296 295 296 296 295 294 294 292 291 291 290 290 288 287 285 284 282 279 278 277 276 274 273 271 269 268 266 264 263 262 260 259 259 258 258
291 292 292 294 295 296 299 298 297 296 295 297 297 296 295 293 293 292 291 290 290 289 288 286 286 285 283 279 277 276 275 274 273 271 269 267 265 264 263 262 261 260 261 261
291 291 292 293 294 295 298 298 297 296 298 298 297 296 295 294 293 292 291 291 291 290 290 288 287 287 285 282 279 278 277 276 274 271 270 269 267 266 264 263 263 262 263 263
290 291 292 293 294 296 297 295 295 295 296 296 296 296 295 294 293 292 292 292 292 291 291 289 287 286 285 283 281 280 278 277 274 271 270 269 268 267 266 266 266 265 264 263
289 290 291 292 293 295 294 293 293 293 294 295 295 296 296 294 293 293 293 294 294 292 290 288 287 286 285 284 282 280 278 275 274 272 271 270 270 270 269 268 267 266 265 264
289 291 291 291 292 292 292 292 292 292 292 293 294 295 295 294 294 294 294 294 294 293 290 288 286 285 284 283 282 280 278 276 275 275 274 273 272 271 271 270 268 267 266 265
291 290 291 292 293 291 290 291 290 290 290 291 292 293 294 295 295 295 294 294 293 293 291 289 287 286 284 283 283 281 279 278 276 276 276 274 274 274 273 272 271 269 268 267
290 290 291 292 292 291 291 291 290 290 290 290 291 291 293 293 294 295 295 294 293 292 291 290 288 287 286 284 283 282 280 278 277 276 275 274 275 275 274 273 272 271 269 267
Height
5699 5698 5696 5694 5692 5689 5687 5684 5682 5680 5678 5676 5675 5674 5673 5672 5673 5673 5673 5672 5673 5673 5674 5675 5675 5675 5676 5678 5679 5681 5682 5684 5686 5688 5691 5694 5697 5700 5703 5705 5708 5711 5714 5717
5693 5691 5689 5686 5684 5681 5678 5676 5673 5671 5668 5666 5665 5665 5663 5663 5662 5662 5662 5661 5662 5663 5663 5663 5664 5665 5665 5667 5668 5669 5671 5673 5675 5677 5680 5683 5686 5689 5692 5694 5697 5700 5703 5706
5686 5685 5681 5679 5676 5673 5670 5668 5664 5661 5659 5657 5655 5656 5655 5654 5653 5652 5652 5651 5651 5652 5652 5652 5652 5653 5654 5655 5656 5658 5659 5661 5663 5666 5668 5671 5674 5677 5680 5683 5686 5689 5692 5695
5679 5677 5674 5671 5669 5666 5663 5660 5656 5652 5650 5648 5647 5645 5647 5645 5644 5642 5642 5641 5640 5640 5640 5640 5641 5642 5643 5644 5645 5646 5648 5649 5651 5653 5656 5658 5662 5665 5668 5671 5674 5677 5680 5683
5672 5669 5667 5664 5662 5658 5655 5651 5648 5644 5641 5639 5638 5635 5637 5636 5635 5633 5632 5631 5630 5629 5629 5629 5630 5630 5631 5631 5633 5634 5635 5637 5638 5641 5643 5646 5649 5652 5655 5658 5662 5665 5668 5671
5665 5662 5659 5656 5653 5650 5646 5643 5640 5636 5632 5630 5630 5626 5626 5626 5625 5623 5622 5621 5619 5618 5618 5618 5618 5618 5619 5619 5620 5621 5622 5624 5625 5628 5630 5632 5635 5639 5642 5645 5649 5652 5655 5658
5658 5655 5652 5649 5645 5642 5638 5635 5631 5626 5623 5621 5620 5617 5618 5617 5615 5613 5612 5610 5609 5608 5607 5606 5606 5606 5607 5607 5607 5608 5609 5611 5612 5614 5616 5619 5621 5625 5628 5631 5635 5639 5642 5645
5649 5647 5644 5640 5637 5634 5630 5627 5623 5619 5615 5612 5610 5608 5609 5608 5605 5603 5601 5600 5598 5597 5596 5595 5594 5594 5594 5594 5595 5595 5596 5597 5599 5600 5602 5605 5607 5610 5614 5618 5621 5624 5628 5632
5640 5638 5636 5632 5629 5625 5621 5618 5615 5611 5606 5603 5601 5600 5599 5597 5595 5593 5591 5590 5588 5586 5585 5583 5582 5582 5581 5582 5582 5582 5583 5584 5585 5586 5588 5590 5593 5596 5599 5603 5607 5610 5614 5617
5631 5629 5627 5624 5621 5617 5614 5610 5606 5602 5597 5593 5591 5590 5590 5588 5585 5583 5581 5578 5577 5575 5573 5572 5571 5570 5569 5569 5569 5569 5569 5570 5571 5572 5574 5576 5578 5581 5584 5588 5592 5596 5599 5603
5622 5620 5618 5615 5612 5609 5605 5602 5597 5593 5589 5585 5581 5583 5581 5578 5575 5572 5569 5567 5565 5564 5562 5561 5559 5558 5557 5557 5556 5556 5557 5557 5558 5559 5560 5562 5564 5567 5570 5573 5577 5581 5585 5588
5613 5610 5607 5606 5603 5599 5595 5592 5588 5585 5581 5576 5572 5574 5572 5569 5565 5562 5559 5557 5555 5553 5551 5549 5548 5546 5545 5545 5544 5544 5544 5544 5545 5546 5547 5549 5551 5553 5555 5559 5562 5566 5569 5573
5604 5601 5597 5595 5595 5591 5586 5583 5579 5575 5571 5567 5563 5564 5562 5558 5554 5551 5548 5546 5544 5542 5540 5538 5536 5535 5534 5533 5532 5532 5532 5532 5532 5533 5534 5536 5537 5539 5541 5544 5547 5551 5554 5558
5594 5591 5589 5586 5583 5579 5576 5573 5570 5565 5561 5558 5555 5553 5552 5547 5543 5540 5537 5535 5533 5531 5528 5526 5524 5523 5522 5521 5521 5520 5520 5520 5520 5520 5521 5522 5524 5526 5528 5530 5533 5535 5539 5542
5584 5581 5578 5575 5572 5568 5565 5563 5559 5555 5552 5548 5546 5543 5542 5537 5533 5529 5526 5524 5521 5519 5517 5515 5513 5512 5510 5510 5509 5508 5508 5508 5508 5508 5508 5509 5510 5512 5514 5516 5518 5521 5523 5526
5573 5570 5567 5565 5562 5557 5554 5552 5549 5545 5542 5538 5534 5532 5531 5525 5521 5518 5515 5512 5510 5508 5505 5503 5501 5500 5499 5498 5497 5496 5496 5495 5495 5495 5496 5496 5497 5498 5500 5502 5504 5506 5508 5511
5563 5560 5556 5553 5551 5545 5543 5544 5539 5535 5532 5527 5523 5522 5518 5514 5510 5507 5504 5501 5498 5496 5494 5492 5490 5488 5487 5486 5485 5484 5484 5483 5483 5483 5483 5483 5483 5484 5486 5487 5489 5491 5493 5495
5553 5548 5544 5540 5538 5533 5537 5532 5528 5523 5520 5516 5512 5509 5506 5502 5499 5496 5493 5490 5487 5485 5482 5480 5478 5477 5475 5474 5473 5472 5471 5470 5470 5470 5470 5470 5470 5471 5472 5473 5474 5476 5478 5480
5542 5538 5533 5528 5524 5521 5524 5521 5516 5511 5509 5506 5501 5498 5494 5491 5488 5486 5482 5479 5476 5473 5471 5469 5467 5465 5464 5462 5461 5460 5459 5458 5457 5457 5457 5457 5457 5457 5458 5459 5460 5462 5463 5465
5531 5527 5523 5518 5513 5510 5513 5510 5504 5500 5497 5496 5491 5487 5483 5480 5477 5477 5472 5468 5465 5463 5460 5458 5456 5453 5452 5450 5449 5448 5447 5445 5445 5444 5444 5444 5444 5445 5445 5446 5447 5448 5449 5450
5520 5516 5512 5507 5501 5500 5501 5497 5493 5490 5488 5484 5480 5476 5473 5469 5467 5464 5461 5458 5455 5452 5449 5447 5445 5443 5440 5438 5437 5436 5434 5433 5432 5432 5432 5431 5431 5432 5432 5433 5434 5435 5436 5436
5508 5504 5501 5497 5492 5492 5489 5485 5482 5479 5475 5472 5468 5465 5462 5459 5455 5453 5450 5447 5444 5441 5438 5436 5433 5432 5429 5427 5425 5424 5423 5422 5421 5420 5420 5419 5419 5419 5419 5420 5421 5421 5422 5423
5497 5495 5490 5487 5485 5481 5477 5473 5470 5467 5464 5461 5458 5455 5451 5448 5445 5442 5439 5436 5433 5430 5427 5425 5422 5420 5418 5416 5414 5413 5412 5411 5410 5409 5408 5408 5407 5407 5407 5407 5408 5408 5408 5409
5486 5482 5478 5475 5473 5470 5465 5462 5459 5456 5453 5450 5447 5444 5441 5438 5435 5432 5429 5426 5423 5419 5416 5414 5411 5409 5407 5405 5403 5402 5401 5400 5399 5398 5397 5396 5396 5395 5395 5395 5395 5395 5395 5396
5474 5470 5466 5463 5461 5457 5454 5451 5448 5445 5442 5439 5436 5433 5430 5427 5424 5421 5418 5415 5412 5409 5405 5403 5400 5398 5396 5394 5392 5391 5390 5389 5388 5387 5386 5385 5384 5384 5383 5383 5382 5382 5382 5382
5463 5459 5455 5453 5450 5446 5444 5440 5437 5434 5431 5429 5426 5423 5420 5417 5413 5410 5407 5404 5401 5398 5395 5392 5389 5387 5385 5383 5381 5380 5378 5377 5376 5375 5374 5374 5373 5372 5372 5371 5371 5369 5370 5370